This is the latest recevied weather packets stored in our database for station/object N4QB-13. If no packets are shown the sender has not sent any weather packets the latest 10 day(s).
| Time | Temp. | Humidity | Pressure | Rain* | Wind** | Luminosity | Snow |
|---|---|---|---|---|---|---|---|
| 1777397865 | 27.78° C | 57% | 1019.3 hPa | 0 mm | - | 89 W/m² | - |
| 1777397560 | 27.22° C | 58% | 1019.5 hPa | 0 mm | - | 101 W/m² | - |
| 1777397257 | 27.22° C | 58% | 1019.7 hPa | 0 mm | - | 78 W/m² | - |
| 1777396954 | 27.22° C | 58% | 1019.4 hPa | 0 mm | - | 75 W/m² | - |
| 1777396651 | 27.78° C | 58% | 1019.7 hPa | 0 mm | - | 103 W/m² | - |
| 1777396347 | 27.22° C | 58% | 1019.5 hPa | 0 mm | - | 102 W/m² | - |
| 1777396044 | 26.67° C | 59% | 1019.8 hPa | 0 mm | - | 74 W/m² | - |
| 1777395739 | 26.67° C | 59% | 1019.5 hPa | 0 mm | - | 67 W/m² | - |
| 1777395435 | 26.11° C | 60% | 1019.7 hPa | 0 mm | - | 59 W/m² | - |
| 1777395133 | 26.11° C | 61% | 1019.4 hPa | 0 mm | - | 53 W/m² | - |
| 1777394830 | 25.56° C | 62% | 1019.5 hPa | 0 mm | - | 50 W/m² | - |
| 1777394525 | 26.11° C | 63% | 1019.1 hPa | 0 mm | - | 104 W/m² | - |
| 1777394223 | 26.11° C | 64% | 1019.2 hPa | 0 mm | - | 44 W/m² | - |
| 1777393918 | 25.56° C | 65% | 1019.4 hPa | 0 mm | - | 42 W/m² | - |
| 1777393617 | 25.56° C | 65% | 1019.4 hPa | 0 mm | - | 40 W/m² | - |
| 1777393313 | 25° C | 66% | 1019.3 hPa | 0 mm | - | 39 W/m² | - |
| 1777393010 | 25° C | 66% | 1019.5 hPa | 0 mm | - | 39 W/m² | - |
| 1777392705 | 25° C | 67% | 1019.5 hPa | 0 mm | - | 38 W/m² | - |
| 1777392402 | 24.44° C | 68% | 1019.6 hPa | 0 mm | - | 37 W/m² | - |
| 1777392097 | 24.44° C | 68% | 1019.7 hPa | 0 mm | - | 36 W/m² | - |
| 1777391792 | 24.44° C | 68% | 1019.4 hPa | 0 mm | - | 36 W/m² | - |
| 1777391488 | 24.44° C | 69% | 1019.5 hPa | 0 mm | - | 35 W/m² | - |
| 1777391185 | 23.89° C | 70% | 1019.5 hPa | 0 mm | - | 34 W/m² | - |
| 1777390881 | 23.89° C | 71% | 1019.5 hPa | 0 mm | - | 33 W/m² | - |
| 1777390578 | 23.33° C | 73% | 1019.4 hPa | 0 mm | - | 33 W/m² | - |
* Rain latest hour (hover to see other rain measurements)
** Current wind speed in m/s (hover to see current wind gust speed)